Tiempo cada hora Murczynek

Hoy, 27 Octubre, Martes

Tiempo Temperatura Precipitaciones Viento Presión Humedad
00:00 +11°C° 0 mm 3 mps 744 mmHg 88%
01:00 +10°C° 0 mm 3 mps 745 mmHg 88%
02:00 +10°C° 0 mm 2 mps 745 mmHg 89%
03:00 +10°C° 0 mm 2 mps 745 mmHg 90%
04:00 +10°C° 0 mm 2 mps 746 mmHg 91%
05:00 +10°C° 0.2 mm 2 mps 746 mmHg 92%
06:00 +10°C° 0.2 mm 2 mps 746 mmHg 93%
07:00 +10°C° 0.2 mm 2 mps 747 mmHg 94%
08:00 +10°C° 0.4 mm 2 mps 747 mmHg 91%
09:00 +10°C° 0.4 mm 3 mps 747 mmHg 88%
10:00 +10°C° 0.4 mm 3 mps 748 mmHg 86%
11:00 +11°C° 0 mm 3 mps 748 mmHg 80%
12:00 +11°C° 0 mm 3 mps 748 mmHg 75%
13:00 +12°C° 0 mm 3 mps 748 mmHg 69%
14:00 +11°C° 0 mm 3 mps 748 mmHg 70%
15:00 +11°C° 0 mm 3 mps 748 mmHg 72%
16:00 +11°C° 0 mm 3 mps 748 mmHg 74%
17:00 +10°C° 0 mm 3 mps 749 mmHg 76%
18:00 +10°C° 0 mm 3 mps 749 mmHg 78%
19:00 +9°C° 0 mm 3 mps 749 mmHg 80%
20:00 +9°C° 0 mm 3 mps 749 mmHg 81%
21:00 +8°C° 0 mm 3 mps 750 mmHg 83%
22:00 +8°C° 0 mm 3 mps 750 mmHg 84%
23:00 +8°C° 0 mm 3 mps 750 mmHg 85%

Mañana, 28 Octubre, Miércoles

Tiempo Temperatura Precipitaciones Viento Presión Humedad
00:00 +8°C° 0 mm 3 mps 750 mmHg 85%
01:00 +7°C° 0 mm 3 mps 750 mmHg 86%
02:00 +7°C° 0 mm 3 mps 750 mmHg 86%
03:00 +6°C° 0 mm 4 mps 750 mmHg 85%
04:00 +6°C° 0 mm 4 mps 750 mmHg 84%
05:00 +6°C° 0 mm 4 mps 750 mmHg 83%
06:00 +6°C° 0 mm 4 mps 750 mmHg 82%
07:00 +6°C° 0 mm 5 mps 750 mmHg 81%
08:00 +7°C° 0 mm 5 mps 750 mmHg 76%
09:00 +8°C° 0 mm 6 mps 750 mmHg 71%
10:00 +9°C° 0 mm 6 mps 750 mmHg 66%
11:00 +10°C° 0 mm 6 mps 750 mmHg 66%
12:00 +10°C° 0 mm 5 mps 750 mmHg 67%
13:00 +10°C° 0 mm 5 mps 750 mmHg 67%
14:00 +11°C° 0 mm 4 mps 750 mmHg 69%
15:00 +10°C° 0 mm 4 mps 750 mmHg 70%
16:00 +10°C° 0 mm 3 mps 750 mmHg 72%
17:00 +10°C° 0 mm 3 mps 750 mmHg 74%
18:00 +10°C° 0 mm 4 mps 750 mmHg 76%
19:00 +8°C° 0 mm 4 mps 751 mmHg 78%
20:00 +8°C° 0 mm 4 mps 751 mmHg 79%
21:00 +8°C° 0 mm 4 mps 751 mmHg 81%
22:00 +8°C° 0 mm 5 mps 751 mmHg 83%
23:00 +8°C° 0 mm 4 mps 751 mmHg 84%

Pasado mañana, 29 Octubre, Jueves

Tiempo Temperatura Precipitaciones Viento Presión Humedad
00:00 +7°C° 0 mm 4 mps 751 mmHg 86%
01:00 +7°C° 0 mm 4 mps 751 mmHg 87%
02:00 +7°C° 0 mm 4 mps 751 mmHg 88%
03:00 +7°C° 0 mm 4 mps 751 mmHg 89%
04:00 +8°C° 0 mm 3 mps 751 mmHg 89%
05:00 +7°C° 0 mm 4 mps 751 mmHg 89%
06:00 +7°C° 0 mm 4 mps 751 mmHg 89%
07:00 +7°C° 0 mm 4 mps 751 mmHg 88%
08:00 +8°C° 0 mm 4 mps 751 mmHg 85%
09:00 +9°C° 0 mm 5 mps 751 mmHg 81%
10:00 +9°C° 0 mm 5 mps 750 mmHg 78%
11:00 +10°C° 0.1 mm 5 mps 750 mmHg 78%
12:00 +10°C° 0.1 mm 5 mps 750 mmHg 77%
13:00 +10°C° 0.1 mm 5 mps 750 mmHg 77%
14:00 +10°C° 0.5 mm 5 mps 750 mmHg 79%
15:00 +10°C° 0.5 mm 4 mps 750 mmHg 81%
16:00 +10°C° 0.5 mm 3 mps 751 mmHg 83%
17:00 +8°C° 0.1 mm 4 mps 751 mmHg 83%
18:00 +7°C° 0.1 mm 4 mps 752 mmHg 84%
19:00 +7°C° 0.1 mm 4 mps 752 mmHg 84%
20:00 +6°C° 0 mm 4 mps 752 mmHg 85%
21:00 +6°C° 0 mm 4 mps 753 mmHg 86%
22:00 +6°C° 0 mm 4 mps 753 mmHg 86%
23:00 +5°C° 0 mm 4 mps 753 mmHg 87%

30 Octubre, Viernes

Tiempo Temperatura Precipitaciones Viento Presión Humedad
00:00 +5°C° 0 mm 4 mps 754 mmHg 88%
01:00 +5°C° 0 mm 5 mps 754 mmHg 89%
02:00 +5°C° 0 mm 5 mps 754 mmHg 89%
03:00 +6°C° 0 mm 5 mps 754 mmHg 89%
04:00 +6°C° 0 mm 5 mps 755 mmHg 88%
05:00 +6°C° 0 mm 5 mps 755 mmHg 89%
06:00 +6°C° 0 mm 4 mps 755 mmHg 89%
07:00 +6°C° 0 mm 4 mps 755 mmHg 89%
08:00 +6°C° 0 mm 4 mps 755 mmHg 86%
09:00 +6°C° 0 mm 4 mps 755 mmHg 84%
10:00 +8°C° 0 mm 3 mps 756 mmHg 81%
11:00 +8°C° 0 mm 3 mps 755 mmHg 78%
12:00 +9°C° 0 mm 3 mps 755 mmHg 74%
13:00 +10°C° 0 mm 3 mps 755 mmHg 71%
14:00 +9°C° 0 mm 3 mps 755 mmHg 75%
15:00 +9°C° 0 mm 2 mps 755 mmHg 79%
16:00 +9°C° 0 mm 2 mps 755 mmHg 83%
17:00 +8°C° 0 mm 2 mps 755 mmHg 85%
18:00 +8°C° 0 mm 2 mps 755 mmHg 88%
19:00 +7°C° 0 mm 2 mps 756 mmHg 90%
20:00 +7°C° 0 mm 2 mps 756 mmHg 91%
21:00 +8°C° 0 mm 1 mps 756 mmHg 91%
22:00 +7°C° 0 mm 1 mps 756 mmHg 92%
23:00 +7°C° 0 mm 1 mps 757 mmHg 92%

31 Octubre, Sábado

Tiempo Temperatura Precipitaciones Viento Presión Humedad
00:00 +7°C° 0 mm 1 mps 757 mmHg 92%
01:00 +7°C° 0 mm 1 mps 757 mmHg 93%
02:00 +6°C° 0 mm 1 mps 757 mmHg 93%
03:00 +6°C° 0 mm 1 mps 758 mmHg 93%
04:00 +5°C° 0 mm 2 mps 758 mmHg 94%
05:00 +5°C° 0 mm 2 mps 758 mmHg 94%
06:00 +5°C° 0 mm 2 mps 758 mmHg 94%
07:00 +5°C° 0 mm 2 mps 758 mmHg 94%
08:00 +6°C° 0 mm 2 mps 759 mmHg 89%
09:00 +7°C° 0 mm 3 mps 759 mmHg 83%
10:00 +8°C° 0 mm 3 mps 759 mmHg 78%
11:00 +9°C° 0 mm 3 mps 759 mmHg 74%
12:00 +10°C° 0 mm 3 mps 759 mmHg 71%
13:00 +11°C° 0 mm 3 mps 759 mmHg 67%
14:00 +10°C° 0 mm 3 mps 759 mmHg 70%
15:00 +9°C° 0 mm 3 mps 759 mmHg 73%
16:00 +9°C° 0 mm 3 mps 759 mmHg 75%
17:00 +8°C° 0 mm 3 mps 759 mmHg 77%
18:00 +7°C° 0 mm 3 mps 759 mmHg 79%
19:00 +7°C° 0 mm 3 mps 760 mmHg 81%
20:00 +5°C° 0 mm 3 mps 760 mmHg 81%
21:00 +5°C° 0 mm 3 mps 760 mmHg 82%
22:00 +5°C° 0 mm 3 mps 760 mmHg 83%
23:00 +4°C° 0 mm 3 mps 759 mmHg 82%

1 Noviembre, Domingo

Tiempo Temperatura Precipitaciones Viento Presión Humedad
00:00 +4°C° 0 mm 4 mps 759 mmHg 82%
01:00 +4°C° 0 mm 4 mps 759 mmHg 82%
02:00 +4°C° 0 mm 4 mps 759 mmHg 82%
03:00 +4°C° 0 mm 4 mps 759 mmHg 82%
04:00 +4°C° 0 mm 4 mps 759 mmHg 81%
05:00 +4°C° 0 mm 4 mps 759 mmHg 80%
06:00 +4°C° 0 mm 4 mps 758 mmHg 79%
07:00 +4°C° 0 mm 4 mps 758 mmHg 78%
08:00 +5°C° 0 mm 4 mps 758 mmHg 74%
09:00 +6°C° 0 mm 5 mps 758 mmHg 70%
10:00 +7°C° 0 mm 5 mps 758 mmHg 66%
11:00 +8°C° 0 mm 4 mps 758 mmHg 64%
12:00 +10°C° 0 mm 4 mps 758 mmHg 62%
13:00 +11°C° 0 mm 4 mps 757 mmHg 60%
14:00 +10°C° 0 mm 3 mps 757 mmHg 65%
15:00 +10°C° 0 mm 3 mps 757 mmHg 70%
16:00 +9°C° 0 mm 3 mps 757 mmHg 74%
17:00 +9°C° 0 mm 3 mps 757 mmHg 78%
18:00 +8°C° 0 mm 3 mps 757 mmHg 81%
19:00 +8°C° 0 mm 3 mps 757 mmHg 85%
20:00 +7°C° 0 mm 2 mps 757 mmHg 87%
21:00 +7°C° 0 mm 2 mps 757 mmHg 88%
22:00 +7°C° 0 mm 2 mps 757 mmHg 90%
23:00 +7°C° 0 mm 2 mps 757 mmHg 91%
Mostrar más

Necesitamos Su Consentimiento

Meteoprog y nuestros Proveedores de Servicios pueden almacenar y acceder a sus datos personales como cookies, identificadores de dispositivo u otras tecnologías similares de su dispositivo y procesar dichos datos para personalizar contenido y anuncios, además de ofrecer funciones de redes sociales y analizar el tráfico.

  • Almacenar y/o acceder a información en su dispositivo

    Se puede almacenar o acceder a cookies, identificadores de dispositivo u otra información de su dispositivo para los fines anteriormente indicados.

  • Anuncios y contenido personalizados, medición de anuncios y contenido, percepciones del público, y desarrollo de productos

    Los anuncios y el contenido pueden personalizarse en base a su perfil. Se pueden añadir más datos para personalizar mejor los anuncios y contenidos. Se puede medir el rendimiento de los anuncios y contenidos. Se puede obtener la percepción sobre el público que ha visto los anuncios y contenidos. Dichos datos pueden usarse para desarrollar o mejorar la experiencia del usuario, sistemas y software.

Al hacer clic en ‘Estoy De Acuerdo’ usted permitirá el uso de las cookies, identificadores de dispositivo, balizas web u otras tecnologías similares indicadas. Su configuración puede cambiarse desde el navegador de su dispositivo.

Para ciertos fines, los intereses legítimos pueden ser considerados por encima del consentimiento. Puede leer más sobre ello en nuestra Política de Privacidad y Cookies.